www.pogodaiklimat.ru
ПОГОДА в Хониара аэропорту
Время
(UTC), дата
15 6.04
18 6.04
21 6.04
00 7.04
03 7.04
06 7.04
09 7.04
12 7.04
15 7.04
18 7.04
21 7.04
00 8.04
03 8.04
06 8.04
09 8.04
12 8.04
15 8.04
18 8.04
21 8.04
00 9.04
03 9.04
06 9.04
09 9.04
12 9.04
15 9.04
18 9.04
21 9.04
00 10.04
03 10.04
06 10.04
09 10.04
12 10.04
15 10.04
18 10.04
21 10.04
00 11.04
03 11.04
06 11.04
09 11.04
12 11.04
15 11.04
18 11.04
21 11.04
00 12.04
03 12.04
06 12.04
09 12.04
12 12.04
15 12.04
18 12.04
21 12.04
00 13.04
03 13.04
06 13.04
09 13.04
12 13.04
Ветер
(напр.,м/с)
Видим. Явления Облачность Т
(С)
Тd
(С)
f
(%)
Тe
(С)
Тes
(С)
Комфортность P
(гПа)
Po
(гПа)
Тmin
(С)
Tmax
(С)
R
(мм)
R24
(мм)
S
(см)
штиль 0 20 км слаб. дождь 10/5 420 м
[Cu Sc As op]
+24.4 +23.9 97 +33 +33 очень
душно
1007.5 1006.5
штиль 0 10 км осадки на расстоянии {морось} 10/5 420 м
[Cu Sc Ac As]
+24.4 +24.2 99 +34 +34 очень
душно
1007.5 1006.5 9
СЗ 4 500 м дождь 10/8 150 м
[Cb cap As op]
+24.5 +24.5 100 +34 +34 очень
душно
1009.4 1008.4
З 3 1000 м слаб. дождь 10/6 300 м
[Cb cap As op]
+26.7 +23.5 83 +36 +36 очень
душно
1009.1 1008.1 +23.0 164 164.4
С 3 10 км в посл. час ливневой дождь 10/8 420 м
[Cb cap As trans]
+28.4 +24.0 77 +39 +39 очень
душно
1007.1 1006.1
С 4 20 км осадки на расстоянии {ливн. дождь, морось} 9/6 480 м
[Cb cap Ac As]
+28.0 +22.5 72 +37 +37 очень
душно
1006.8 1005.8 5
Ю 3 20 км осадки на расстоянии 10/6 450 м
[Cb cap Ac As]
+26.0 +24.0 89 +36 +36 очень
душно
1008.5 1007.5
Ю 3 10 км осадки на расстоянии 10/6 420 м
[Cb cap Ac As]
+24.9 +23.7 93 +34 +34 очень
душно
1008.6 1007.6 +29.2
штиль 0 20 км осадки на расстоянии 10/5 420 м
[Cu Sc Ac As]
+24.8 +23.8 94 +34 +34 очень
душно
1007.2 1006.2
Ю 1 20 км осадки на расстоянии {ливн. дождь} 9/4 420 м
[Cu Sc Ac trans Cs]
+24.0 +23.3 96 +32 +32 очень
душно
1006.1 1005.1 1
Ю 2 20 км в посл. час ливневой дождь {морось} 10/5 450 м
[Cb cap Ac trans Cs]
+24.6 +23.6 94 +33 +34 очень
душно
1008.9 1007.9
СВ 3 10 км в посл. час ливневой дождь 10/8 150 м
[Cb cap]
+26.4 +25.5 95 +39 +40 очень
душно
1009.9 1008.9 +23.5
В 2 10 км слаб. ливневой дождь {морось} 10/9 450 м
[Cu med, cong]
+27.5 +24.6 84 +39 +40 очень
душно
1007.2 1006.2
СВ 2 10 км осадки на расстоянии {морось} 10/8 450 м
[Cb cap Ac As]
+28.4 +24.5 79 +40 +40 очень
душно
1006.6 1005.6 2
штиль 0 10 км слаб. морось 10/8 420 м
[Cb cap Ac As]
+26.1 +25.1 94 +37 +37 очень
душно
1008.4 1007.4
штиль 0 10 км слаб. ливневой дождь {морось} 10/8 420 м
[Cb cap Ac As]
+25.6 +25.1 97 +37 +37 очень
душно
1009.7 1008.7 +29.3 0.4
З 5 20 км осадки на расстоянии {ливн. дождь} 10/5 420 м
[Cu Sc As op]
+24.5 +23.8 96 +33 +33 очень
душно
1008.6 1007.6
Ю 1 20 км осадки на расстоянии {морось} 10/4 420 м
[Cu Sc Ac As Cs]
+24.6 +23.8 95 +33 +33 очень
душно
1007.8 1006.8 13
Ю 1 20 км осадки на расстоянии {морось} 10/3 480 м
[Cu Sc Ac As]
+26.0 +23.8 88 +36 +36 очень
душно
1009.9 1008.9
штиль 0 20 км 10/3 540 м
[Cu Sc Ac As]
+30.0 +23.8 69 +41 +42 опасность
перегрева
1010.7 1009.7 +24.0 16 15.6
З 2 20 км осадки на расстоянии 10/5 540 м
[Cb cap Ac trans Cs]
+30.0 +22.7 65 +40 +40 очень
душно
1008.3 1007.3
ЮЗ 3 10 км слаб. ливневой дождь 10/8 540 м
[Cb cap As op]
+27.6 +25.2 87 +40 +40 очень
душно
1008.2 1007.2 0.9
Ю 3 10 км слаб. дождь 10/5 420 м
[Cb cap As op]
+24.0 +23.9 99 +33 +33 очень
душно
1010.6 1009.6
Ю 2 20 км осадки на расстоянии 8/8 420 м
[Cu Sc]
+23.7 +23.2 97 +32 +32 очень
душно
1011.0 1010.0 +31.1 20
штиль 0 20 км осадки на расстоянии 8/8 450 м
[Cu Sc Ac trans]
+24.1 +23.9 99 +33 +33 очень
душно
1008.7 1007.7
Ю 2 10 км слаб. морось 10/9 420 м
[Cb cap]
+24.2 +24.0 99 +33 +33 очень
душно
1008.3 1007.3 0.2
С 2 10 км в посл. час ливневой дождь 10/10 180 м
[Cu Sc]
+25.0 +24.1 95 +34 +35 очень
душно
1010.2 1009.2
Ю 3 10 км осадки на расстоянии {морось} 10/6 480 м
[Cb cap Ac As]
+26.0 +24.6 92 +37 +37 очень
душно
1010.7 1009.7 +23.1 21 21.4
Ю 1 20 км осадки на расстоянии 10/5 570 м
[Cu Sc Ac As]
+30.0 +24.6 73 +43 +43 опасность
перегрева
1007.8 1006.8
СЗ 1 20 км 10/4 540 м
[Cu Sc Ac trans Cs]
+29.5 +24.5 75 +42 +42 опасность
перегрева
1006.9 1005.9
штиль 0 20 км 9/3 480 м
[Cu Sc Ac trans Cs]
+26.4 +25.9 97 +39 +39 очень
душно
1009.2 1008.2
штиль 0 20 км 9/1 450 м
[Cu hum Ac trans Cs]
+25.4 +24.5 95 +36 +36 очень
душно
1010.8 1009.8 +30.8
Ю 2 10 км слаб. дождь 10/5 420 м
[Cb cap Ac As]
+24.6 +24.4 99 +34 +34 очень
душно
1009.8 1008.8
штиль 0 10 км слаб. морось {дождь} 10/8 420 м
[Cb cap As op]
+24.3 +24.2 99 +33 +33 очень
душно
1009.3 1008.3 4
Ю 2 20 км осадки на расстоянии {морось} 10/4 450 м
[Cb cap Ac trans Cs]
+25.8 +24.6 93 +36 +37 очень
душно
1010.8 1009.8
З 3 20 км осадки на расстоянии 9/4 540 м
[Cb cap Ac As Cs]
+30.5 +25.4 74 +44 +46 опасность
перегрева
1011.3 1010.3 +24.0 6 5.6
Ю 3 20 км осадки на расстоянии {ливн. дождь} 8/4 480 м
[Cb cap Ac trans Cs]
+27.5 +23.9 81 +38 +41 очень
душно
1008.4 1007.4
ЮЗ 1 20 км осадки на расстоянии 10/5 500 м
[Cb cap Ac As Cs]
+29.5 +24.2 73 +41 +41 опасность
перегрева
1008.3 1007.3 4
Ю 2 10 км слаб. дождь {морось} 10/6 420 м
[Cu Sc As op]
+24.0 +23.3 96 +32 +32 очень
душно
1011.0 1010.0
Ю 2 10 км осадки на расстоянии {морось} 10/4 420 м
[Cu Sc Ac As]
+24.5 +24.1 98 +34 +34 очень
душно
1010.9 1009.9 +31.0 2
Ю 1 20 км 9/4 420 м
[Cu Sc As op Cs]
+24.2 +24.0 99 +33 +33 очень
душно
1009.2 1008.2
ЮВ 1 20 км осадки на расстоянии 10/4 420 м
[Cu Sc Ac As Cs]
+24.2 +24.0 99 +33 +33 очень
душно
1008.5 1007.5
Ю 3 20 км 8/3 480 м
[Cu Sc Ac trans Cs]
+25.0 +23.5 91 +34 +34 очень
душно
1010.5 1009.5
СВ 3 20 км мгла 5/3 570 м
[Cu Sc Ac trans Cs]
+30.6 +24.1 68 +42 +50 опасность
перегрева
1010.4 1009.4 +23.5 16 16.2
С 3 20 км осадки на расстоянии 6/4 570 м
[Cb cap Ac trans Cs]
+31.4 +25.0 69 +45 +51 опасность
перегрева
1007.8 1006.8
С 3 20 км осадки на расстоянии 9/5 500 м
[Cb cap Ac As Cs]
+29.5 +23.7 71 +40 +41 очень
душно
1007.8 1006.8
штиль 0 20 км слаб. морось 10/5 480 м
[Cu Sc Ac As]
+26.1 +25.3 95 +38 +38 очень
душно
1009.9 1008.9
штиль 0 20 км осадки на расстоянии {морось} 8/6 420 м
[Cu Sc Ac trans Cs]
+24.8 +24.6 99 +35 +35 очень
душно
1010.7 1009.7 +31.3 0.3
штиль 0 20 км 1/1 420 м
[Cu Sc]
+24.0 +23.9 99 +33 +33 очень
душно
1008.9 1007.9
Ю 1 20 км осадки на расстоянии 4/4 420 м
[Cu Sc]
+24.0 +23.3 96 +32 +32 очень
душно
1008.4 1007.4
Ю 1 20 км 4/3 450 м
[Cb cap Ac trans Cs]
+26.5 +23.6 84 +36 +39 очень
душно
1009.9 1008.9
С 2 20 км осадки на расстоянии 9/3 600 м
[Cb cap Ac As Cs]
+29.8 +24.4 73 +42 +46 опасность
перегрева
1010.2 1009.2 +23.4 0.3 0.3
С 4 20 км осадки на расстоянии 6/4 600 м
[Cu Sc Ac trans Cs]
+30.5 +25.7 76 +45 +50 опасность
перегрева
1007.4 1006.4
СЗ 3 20 км осадки на расстоянии 8/5 570 м
[Cb cap Ac trans Cs]
+30.5 +24.7 71 +43 +44 опасность
перегрева
1007.1 1006.1
ЮВ 2 10 км слаб. ливневой дождь, в посл. час гроза 10/8 450 м
[Cb cap As op]
+23.8 +23.7 99 +32 +32 очень
душно
1010.2 1009.2
штиль 0 20 км в посл. час морось {ливн. дождь} 8/4 600 м
[Cu Sc Ac As Cs]
+24.6 +24.2 98 +34 +34 очень
душно
1010.6 1009.6 +31.5 5
Местоположение метеостанции Хониара аэропорт (Соломоновы Острова): широта -9.42 долгота 160.05 высота над уровнем моря 9 м.
В архиве по умолчанию представлена погода в Хониара аэропорту за последнюю неделю. Архивные данные за месяц целиком и за предыдущие месяцы, начиная с января 2011 года, Вы можете получить, выбрав интересующий диапазон дат из раскрывающегося списка и нажав кнопку "Найти!".
*Определитесь, кто Вы:
Внимание! Время в таблицах - всемирное. Для получения местного времени необходимо прибавить поправку, которая равна 11 ч.
Смотрите также архив погоды в соседних городах и на ближайших метеорологических станциях:
Партнеры нашего сайта:      
Пояснения к столбцам:
  • Ветер - указаны скорость ветра в м/с - средняя за 10 мин, порывы в срок и между сроками (в фигурных скобках) и направление, откуда дует ветер: С - северный,
  • СВ - северо-восточный, В - восточный, ЮВ - юго-восточный, Ю - южный, ЮЗ - юго-западный, З - западный, СЗ - северо-западный.
  • Видимость - горизонтальная дальность видимости в метрах или километрах. При видимости от 1 до 10 км при отсутствии осадков обычно наблюдается дымка, при ухудшении видимости до 1 км и менее - туман. В сухую погоду видимость может ухудшаться дымом, пылью или мглою.
  • Явления - указаны атмосферные явления, наблюдавшиеся в срок или в последний час перед сроком; фигурными скобками обозначены явления, наблюдавшиеся между сроками (за 1-3 часа до срока); квадратными скобками обозначены град или гололедные отложения с указанием их диаметра в мм.
  • Облачность - указаны через наклонную черту общая и нижняя облачность в баллах и высота нижней границы облаков в метрах; квадратными скобками обозначены формы облаков: Ci - перистые, Cs - перисто-слоистые, Cc - перисто-кучевые, Ac - высококучевые, As - высокослоистые, Sc - слоисто-кучевые, Ns - слоисто-дождевые, Cu - кучевые, Cb - кучево-дождевые. Подробнее классификацию облаков см. в Атласе облаков (PDF).
  • T - Температура воздуха - температура, измеренная на высоте 2 м над землей.
  • Td - Температура точки росы - температура, при понижении до которой содержащийся в воздухе водяной пар достигнет насыщения.
  • f - Относительная влажность воздуха - влажноcть воздуха, измеренная на высоте 2 м над землей.
  • Te - Эффективная температура - температура, которую ощущает одетый по сезону человек в тени. Характеристика душности погоды. При расчете учитывается влияние влажности воздуха и скорости ветра на теплоощущения человека.
  • Tes - Эффективная температура на солнце - температура, которую ощущает человек, с поправкой на солнечный нагрев. Характеристика знойности погоды. Зависит от высоты солнца над горизонтом, облачности и скорости ветра. Ночью, в пасмурную погоду, а также при ветре 12 м/с и более поправка равна нулю.
  • P - Атмосферное давление - приведенное к уровню моря атмосферное давление.
  • Po - Атмосферное давление - измеренное на уровне метеостанции атмосферное давление.
  • Tmin - Минимальная температура - минимум температуры воздуха на высоте 2 м над землей.
  • Tmax - Максимальная температура - максимум температуры воздуха на высоте 2 м над землей.
  • R - Количество осадков - Количество выпавших осадков за период времени, мм. При наведении курсора мыши на число - период времени, за который выпало указанное количество осадков.
  • R24 - Количество осадков - Количество выпавших осадков за 24 часа, мм.
  • S - Снежный покров - Высота снежного покрова, см. При наведении курсора мыши на число - состояние снежного покрова и степень покрытия местности в баллах.